GW2173 Weather Reports


time (UTC)temp
F
wind
direction
speed
knots
gust
knots
rain 1hr
in
rain 24hr
in
rain mn
in
humidity
%
barometer
mb
20260508092625 44 34 1.7 10.4 0.00 0.00 0.00 76 1010.1
20260508091609 44 60 3.5 10.4 0.00 0.00 0.00 76 1010.1
20260508091108 43 25 2.6 10.4 0.00 0.00 0.00 80 1010.2
20260508090607 42 39 2.6 10.4 0.00 0.00 0.00 85 1010.2
20260508090107 42 16 2.6 10.4 0.00 0.00 0.00 88 1010.4
20260508085607 42 12 2.6 10.4 0.00 0.00 0.00 87 1010.4
20260508085107 43 17 2.6 10.4 0.00 0.00 0.00 85 1010.2
20260508084052 43 14 2.6 10.4 0.00 0.00 0.00 85 1010.1
20260508083551 43 12 2.6 10.4 0.00 0.00 0.00 85 1010.2
20260508082535 42 12 2.6 10.4 0.00 0.00 0.00 86 1010.1
20260508082034 43 11 1.7 10.4 0.00 0.00 0.00 85 1010.0
20260508081533 43 15 1.7 10.4 0.00 0.00 0.00 84 1010.5
20260508080519 44 17 2.6 10.4 0.00 0.00 0.00 82 1009.9
20260508080018 44 28 2.6 10.4 0.00 0.00 0.00 79 1010.1
20260508075004 45 51 2.6 10.4 0.00 0.00 0.00 75 1010.0
20260508073948 44 23 3.5 10.4 0.00 0.00 0.00 82 1010.3
20260508073446 43 22 2.6 10.4 0.00 0.00 0.00 87 1010.2
20260508072945 43 5 2.6 10.4 0.00 0.00 0.00 86 1010.0
20260508072444 43 9 2.6 10.4 0.00 0.00 0.00 85 1009.7
20260508071429 44 200 1.7 10.4 0.00 0.00 0.00 85 1010.3
20260508070929 44 0 1.7 10.4 0.00 0.00 0.00 82 1009.4
20260508070429 44 11 2.6 10.4 0.00 0.00 0.00 79 1009.9
20260508065927 44 12 2.6 10.4 0.00 0.00 0.00 80 1009.8
20260508065427 44 2 3.5 10.4 0.00 0.00 0.00 82 1010.0
20260508064926 44 343 2.6 10.4 0.00 0.00 0.00 84 1009.6
20260508064425 44 351 3.5 10.4 0.00 0.00 0.00 83 1009.2
20260508063925 44 244 2.6 10.4 0.00 0.00 0.00 83 1008.2
20260508063424 44 292 2.6 10.4 0.00 0.00 0.00 80 997.2
20260508062923 46 354 2.6 10.4 0.00 0.00 0.00 76 995.2
20260508062423 48 4 1.7 10.4 0.00 0.00 0.00 69 999.0
20260508061921 49 24 3.5 10.4 0.00 0.00 0.00 61 997.6
20260508061421 49 35 4.3 10.4 0.00 0.00 0.00 61 993.2
20260508060921 49 39 3.5 10.4 0.00 0.00 0.00 61 966.4
20260508060419 49 34 2.6 10.4 0.00 0.00 0.00 60 982.6
20260508055919 49 33 2.6 10.4 0.00 0.00 0.00 60 986.7
20260508055418 49 31 2.6 10.4 0.00 0.00 0.00 60 988.3
20260508054917 49 31 3.5 10.4 0.00 0.00 0.00 60 966.3
20260508054416 49 40 2.6 10.4 0.00 0.00 0.00 59 963.5
20260508053916 49 42 1.7 10.4 0.00 0.00 0.00 58 964.3
20260508053415 50 38 1.7 10.4 0.00 0.00 0.00 57 964.6
20260508052915 50 34 1.7 10.4 0.00 0.00 0.00 58 963.9
20260508052415 50 17 2.6 10.4 0.00 0.00 0.00 57 968.2
20260508051400 50 26 2.6 10.4 0.00 0.00 0.00 58 957.6
20260508050859 50 27 2.6 10.4 0.00 0.00 0.00 57 958.2
20260508050359 50 33 3.5 10.4 0.00 0.00 0.00 58 962.6
20260508045858 50 31 4.3 10.4 0.00 0.00 0.00 58 963.9
20260508045357 50 40 3.5 10.4 0.00 0.00 0.00 58 969.7
20260508044856 50 41 1.7 10.4 0.00 0.00 0.00 58 942.6
20260508044355 50 42 2.6 10.4 0.00 0.00 0.00 57 951.7
20260508043854 50 37 2.6 10.4 0.00 0.00 0.00 57 962.6
20260508043353 50 41 2.6 10.4 0.00 0.00 0.00 57 979.7
20260508042852 50 47 2.6 10.4 0.00 0.00 0.00 57 976.9
20260508042351 50 44 1.7 10.4 0.00 0.00 0.00 56 975.9
20260508041850 51 38 2.6 10.4 0.00 0.00 0.00 55 972.6
20260508041350 51 43 2.6 10.4 0.00 0.00 0.00 55 976.1
20260508040334 50 57 1.7 10.4 0.00 0.00 0.00 55 979.0
20260508035833 50 59 1.7 10.4 0.00 0.00 0.00 56 980.7
20260508035333 50 68 1.7 10.4 0.00 0.00 0.00 56 981.2
20260508034832 50 70 1.7 10.4 0.00 0.00 0.00 56 981.4
20260508034331 50 70 1.7 10.4 0.00 0.00 0.00 56 981.8
20260508033830 50 66 1.7 10.4 0.00 0.00 0.00 56 981.8
20260508033330 50 62 1.7 10.4 0.00 0.00 0.00 56 982.6
20260508032830 50 64 1.7 10.4 0.00 0.00 0.00 56 982.7
20260508031813 50 78 1.7 10.4 0.00 0.00 0.00 56 983.3
20260508031313 51 75 1.7 10.4 0.00 0.00 0.00 55 983.3
20260508030813 51 80 2.6 10.4 0.00 0.00 0.00 55 983.5
20260508030313 51 91 1.7 10.4 0.00 0.00 0.00 54 983.5
20260508025813 51 98 1.7 10.4 0.00 0.00 0.00 53 983.3
20260508024757 52 105 2.6 10.4 0.00 0.00 0.00 53 984.2
20260508023741 51 109 1.7 10.4 0.00 0.00 0.00 53 983.6
20260508023240 51 112 2.6 10.4 0.00 0.00 0.00 54 984.1
20260508022740 51 116 2.6 10.4 0.00 0.00 0.00 54 985.6
20260508021207 51 121 2.6 10.4 0.00 0.00 0.00 55 979.0
20260508020150 52 123 2.6 10.4 0.00 0.00 0.00 54 962.2
20260508015649 52 114 2.6 10.4 0.00 0.00 0.00 54 963.8
20260508015148 52 120 3.5 10.4 0.00 0.00 0.00 53 993.1
20260508014647 52 122 3.5 10.4 0.00 0.00 0.00 53 1000.1
20260508014146 52 120 2.6 10.4 0.00 0.00 0.00 52 991.4
20260508013645 52 131 3.5 10.4 0.00 0.00 0.00 52 991.6
20260508013145 53 126 2.6 10.4 0.00 0.00 0.00 52 990.7
20260508012644 53 140 2.6 10.4 0.00 0.00 0.00 52 974.3
20260508012144 53 142 3.5 10.4 0.00 0.00 0.00 51 975.1
20260508011643 53 137 3.5 10.4 0.00 0.00 0.00 50 954.2
20260508011142 53 133 5.2 10.4 0.00 0.00 0.00 50 937.2
20260508010642 54 130 4.3 10.4 0.00 0.00 0.00 51 987.3
20260508010141 54 132 4.3 10.4 0.00 0.00 0.00 51 989.7
20260508004629 54 119 3.5 10.4 0.00 0.00 0.00 49 998.1
20260508004128 54 128 3.5 10.4 0.00 0.00 0.00 49 1000.7
20260508003627 55 126 3.5 10.4 0.00 0.00 0.00 48 1004.3
20260508003126 55 139 3.5 10.4 0.00 0.00 0.00 47 1002.9
20260508001614 56 149 4.3 10.4 0.00 0.00 0.00 45 1005.0
20260507235545 57 77 7.0 12.2 0.00 0.00 0.00 44 1003.5
20260507235044 57 92 5.2 12.2 0.00 0.00 0.00 45 1003.7
20260507234543 57 107 6.1 12.2 0.00 0.00 0.00 44 1003.6
20260507234042 58 100 7.0 12.2 0.00 0.00 0.00 44 1005.7
20260507233541 58 160 7.0 11.3 0.00 0.00 0.00 44 1007.1
20260507233040 58 129 6.1 11.3 0.00 0.00 0.00 44 1007.4
20260507232539 58 119 6.1 11.3 0.00 0.00 0.00 44 1007.0
20260507232039 58 135 5.2 11.3 0.00 0.00 0.00 44 1006.7
20260507231538 59 90 5.2 13.0 0.00 0.00 0.00 43 1007.3
20260507231037 59 129 6.1 16.5 0.00 0.00 0.00 43 1006.6
20260507230536 59 23 7.8 16.5 0.00 0.00 0.00 42 1006.4
20260507230036 59 18 7.0 18.2 0.00 0.00 0.00 42 1007.1
20260507224017 60 73 7.8 16.5 0.00 0.00 0.00 39 1005.9
20260507223517 60 62 7.0 16.5 0.00 0.00 0.00 39 1005.8
20260507223016 60 77 7.8 15.6 0.00 0.00 0.00 37 1005.8
20260507220957 61 333 6.1 15.6 0.00 0.00 0.00 35 1005.8
20260507220456 61 342 7.0 15.6 0.00 0.00 0.00 37 1004.4
20260507215955 61 315 7.8 13.9 0.00 0.00 0.00 36 1004.5
20260507214432 61 332 6.1 15.6 0.00 0.00 0.00 38 1004.3
20260507213931 61 303 7.0 20.0 0.00 0.00 0.00 36 1005.0
20260507212914 61 356 7.8 12.2 0.00 0.00 0.00 37 1006.5
20260507212413 61 348 5.2 13.9 0.00 0.00 0.00 37 1006.2
20260507211912 61 346 6.1 15.6 0.00 0.00 0.00 35 1006.3
20260507210358 62 23 8.7 13.9 0.00 0.00 0.00 36 1005.9
20260507205858 62 332 5.2 12.2 0.00 0.00 0.00 37 1005.8
20260507203839 62 355 2.6 13.0 0.00 0.00 0.00 38 1005.5
20260507203338 62 21 7.0 13.0 0.00 0.00 0.00 37 1005.2
20260507202332 62 350 5.2 15.6 0.00 0.00 0.00 39 1005.4
20260507201831 62 14 5.2 13.0 0.00 0.00 0.00 39 1005.7
20260507201330 62 53 5.2 17.4 0.00 0.00 0.00 42 1005.6
20260507200829 62 15 6.1 17.4 0.00 0.00 0.00 38 1005.8
20260507200328 62 19 5.2 13.9 0.00 0.00 0.00 37 1006.8
20260507195827 62 12 7.0 13.9 0.00 0.00 0.00 38 1007.3
20260507195326 62 24 3.5 15.6 0.00 0.00 0.00 39 1007.0
20260507194825 62 9 8.7 13.9 0.00 0.00 0.00 38 1006.9
20260507194324 62 341 5.2 13.9 0.00 0.00 0.00 38 1006.9
20260507193307 62 353 7.8 15.6 0.00 0.00 0.00 39 1006.4
20260507192806 62 22 6.1 13.9 0.00 0.00 0.00 40 1006.7
20260507192306 61 342 3.5 12.2 0.00 0.00 0.00 39 1006.5
20260507191258 62 35 7.8 15.6 0.00 0.00 0.00 38 1007.0
20260507190757 62 34 7.0 13.9 0.00 0.00 0.00 39 1007.1
20260507190256 61 12 7.0 13.9 0.00 0.00 0.00 40 1006.9
20260507185755 61 60 8.7 15.6 0.00 0.00 0.00 41 1007.1
20260507185254 61 70 9.6 16.5 0.00 0.00 0.00 40 1007.4
20260507184753 61 16 7.0 16.5 0.00 0.00 0.00 41 1007.1
20260507183736 60 87 8.7 13.0 0.00 0.00 0.00 43 1007.5
20260507183234 60 111 3.5 13.0 0.00 0.00 0.00 43 1007.2
20260507182733 60 109 7.8 13.0 0.00 0.00 0.00 40 1006.2
20260507181221 61 55 5.2 10.4 0.00 0.00 0.00 42 1005.8
20260507180720 61 4 5.2 11.3 0.00 0.00 0.00 42 1005.7
20260507174651 60 348 4.3 13.9 0.00 0.00 0.00 48 1006.9
20260507172116 59 12 2.6 11.3 0.00 0.00 0.00 46 1006.4
20260507171615 59 358 7.8 13.9 0.00 0.00 0.00 44 1006.5
20260507170558 59 351 5.2 10.4 0.00 0.00 0.00 49 1006.1
20260507165551 59 4 5.2 9.6 0.00 0.00 0.00 44 1006.7
20260507164535 59 25 5.2 12.2 0.00 0.00 0.00 44 1007.4
20260507164034 58 342 4.3 12.2 0.00 0.00 0.00 49 1006.9
20260507163534 58 21 5.2 13.9 0.00 0.00 0.00 45 1007.8
20260507162021 58 306 6.1 13.0 0.00 0.00 0.00 49 1007.4
20260507161521 57 315 2.6 10.4 0.00 0.00 0.00 50 1006.8
20260507155452 58 329 5.2 11.3 0.00 0.00 0.00 49 1006.7
20260507154952 58 320 3.5 13.0 0.00 0.00 0.00 50 1006.8
20260507154451 57 338 3.5 13.0 0.00 0.00 0.00 52 1006.7
20260507153434 57 125 1.7 11.3 0.00 0.00 0.00 52 1006.5
20260507152428 57 32 3.5 10.4 0.00 0.00 0.00 50 1006.9
20260507151927 57 288 4.3 10.4 0.00 0.00 0.00 51 1006.8
20260507150415 56 92 6.1 11.3 0.00 0.00 0.00 52 1007.0
20260507145914 56 342 4.3 9.6 0.00 0.00 0.00 53 1006.8
20260507144907 56 48 5.2 12.2 0.00 0.00 0.00 56 1005.7
20260507143900 55 150 4.3 11.3 0.00 0.00 0.00 57 1006.0
20260507142853 55 313 3.5 11.3 0.00 0.00 0.00 61 1005.2
20260507140834 54 310 0.0 11.3 0.00 0.00 0.00 64 1005.5
20260507140334 54 330 4.3 11.3 0.00 0.00 0.00 66 1005.2
20260507135833 53 285 0.9 11.3 0.00 0.00 0.00 67 1005.1
20260507135333 53 276 2.6 11.3 0.00 0.00 0.00 68 1005.4
20260507134326 53 287 3.5 11.3 0.00 0.00 0.00 67 1005.5
20260507133825 53 301 1.7 11.3 0.00 0.00 0.00 68 1005.5
20260507133325 53 314 2.6 11.3 0.00 0.00 0.00 68 1005.5
20260507132825 52 279 2.6 11.3 0.00 0.00 0.00 70 1005.6
20260507132324 52 299 3.5 11.3 0.00 0.00 0.00 69 1005.6
20260507131317 51 291 2.6 11.3 0.00 0.00 0.00 67 1005.4
20260507130311 51 324 0.9 11.3 0.00 0.00 0.00 75 1006.9
20260507125811 50 308 0.9 11.3 0.00 0.00 0.00 76 1006.9
20260507125310 50 301 0.9 11.3 0.00 0.00 0.00 77 1007.0
20260507124809 50 308 1.7 11.3 0.00 0.00 0.00 78 1007.0
20260507123256 49 311 1.7 11.3 0.00 0.00 0.00 77 1006.9
20260507122755 50 320 1.7 11.3 0.00 0.00 0.00 74 1007.0
20260507121242 50 334 0.0 11.3 0.00 0.00 0.00 77 1006.1
20260507120741 49 329 0.0 11.3 0.00 0.00 0.00 83 1004.1
20260507120240 48 327 0.0 11.3 0.00 0.00 0.00 77 1007.1
20260507115233 47 40 0.0 11.3 0.00 0.00 0.00 80 1005.6
20260507114732 47 14 0.0 11.3 0.00 0.00 0.00 81 1008.0
20260507114231 46 3 0.0 11.3 0.00 0.00 0.00 82 1009.2
20260507113730 46 40 1.7 11.3 0.00 0.00 0.00 83 1009.2
20260507113229 46 98 1.7 11.3 0.00 0.00 0.00 84 1009.4
20260507111707 46 109 1.7 11.3 0.00 0.00 0.00 84 1008.0
20260507111207 46 110 2.6 11.3 0.00 0.00 0.00 84 1007.4
20260507110706 46 110 2.6 11.3 0.00 0.00 0.00 84 1005.7
20260507110205 46 101 2.6 11.3 0.00 0.00 0.00 84 994.2
20260507105705 46 109 2.6 11.3 0.00 0.00 0.00 84 993.5
20260507104658 46 93 2.6 11.3 0.00 0.00 0.00 83 994.6
20260507104158 46 69 2.6 11.3 0.00 0.00 0.00 83 994.2
20260507103657 46 73 2.6 11.3 0.00 0.00 0.00 84 993.9
20260507103156 46 50 2.6 11.3 0.00 0.00 0.00 85 994.0
20260507102656 46 37 2.6 11.3 0.00 0.00 0.00 84 993.9
20260507102154 46 50 2.6 11.3 0.00 0.00 0.00 83 993.9
20260507101653 46 49 2.6 11.3 0.00 0.00 0.00 83 993.8
20260507101152 46 49 2.6 11.3 0.00 0.00 0.00 84 993.6
20260507100651 46 46 3.5 11.3 0.00 0.00 0.00 86 994.1
20260507100150 46 43 3.5 11.3 0.00 0.00 0.00 86 993.8
20260507095649 46 57 3.5 11.3 0.00 0.00 0.00 86 993.5
20260507095149 46 49 3.5 11.3 0.00 0.00 0.00 86 992.1
20260507094648 46 48 3.5 11.3 0.00 0.00 0.00 87 994.8
20260507094148 46 53 3.5 11.3 0.00 0.00 0.00 87 989.4
20260507093647 46 21 3.5 11.3 0.00 0.00 0.00 87 992.5
20260507093148 47 44 3.5 11.3 0.00 0.00 0.00 86 993.9